sat.trackr.live / text

‹ back to catalog

STARLINK-11623 [DTC]

NORAD 63276 · 2025-053M

PAYLOAD ACTIVE UNKNOWN

§ Identity

Operator
Country
US
Launch date
2025-03-15
Launch site
AFETR
Launch vehicle
Mass (kg)
RCS (m²)

Purposes: comms

External: N2YO · Heavens-Above · Gunter

§ Orbital elements

Epoch: 2026-05-24T21:54:21.000384Z

Period
91.67 min
Inclination
42.9953°
Eccentricity
0.0002172
Mean motion
15.70925851 rev/d
Perigee alt
354.8 km
Apogee alt
357.7 km
Semi-major
6,734.4 km
B*
1.3879e-3
RAAN
13.1184°
Arg perigee
262.9286°
Mean anomaly
97.1334°
Rev number
6,964

§ Raw data

STARLINK-11623 [DTC]1 63276U 25053M   26144.91274306  .00182258  00000+0  13879-2 0  99932 63276  42.9953  13.1184 0002172 262.9286  97.1334 15.70925851 69648

JSON: /api/v1/satellites/63276 · /tle

For live sub-satellite position, see the globe view (requires WebGL).

§ Visibility from observer

Set your observer location to see the next 7 days of passes ≥ 10°. The values pass through the URL so the page stays shareable.

No JS? Fill the form by hand. The geolocation button needs JavaScript.